| time (UTC) | temp C | wind direction | speed KPH | gust KPH | rain 1hr cm | rain 24hr cm | rain mn cm | humidity % | barometer mb |
| 20260505125009 | -17 | 294 | 3.2 | 12.9 | 0.00 | 0.00 | 0.00 | 1014.4 | |
| 20260505124556 | 2 | 271 | 4.8 | 12.9 | 0.00 | 0.00 | 0.00 | 90 | 1014.2 |
| 20260505124521 | -17 | 325 | 3.2 | 12.9 | 0.00 | 0.00 | 0.00 | 1014.1 | |
| 20260505124048 | 2 | 339 | 4.8 | 16.1 | 0.00 | 0.00 | 0.00 | 90 | 1014.1 |
| 20260505124006 | -17 | 324 | 3.2 | 17.7 | 0.00 | 0.00 | 0.00 | 1014.1 | |
| 20260505123542 | 2 | 307 | 8.0 | 16.1 | 0.00 | 0.00 | 0.00 | 90 | 1014.1 |
| 20260505123513 | -17 | 329 | 8.0 | 20.9 | 0.00 | 0.00 | 0.00 | 1014.1 | |
| 20260505123114 | 2 | 313 | 1.6 | 22.5 | 0.00 | 0.00 | 0.00 | 90 | 1014.0 |
| 20260505123021 | -17 | 333 | 1.6 | 20.9 | 0.00 | 0.00 | 0.00 | 1013.9 | |
| 20260505122547 | 2 | 327 | 6.4 | 22.5 | 0.00 | 0.00 | 0.00 | 90 | 1014.0 |
| 20260505122507 | -17 | 353 | 3.2 | 14.5 | 0.00 | 0.00 | 0.00 | 1014.0 | |
| 20260505122057 | 2 | 327 | 4.8 | 14.5 | 0.00 | 0.00 | 0.00 | 90 | 1014.0 |
| 20260505122009 | -17 | 336 | 1.6 | 14.5 | 0.00 | 0.00 | 0.00 | 1014.2 | |
| 20260505121550 | 2 | 329 | 6.4 | 14.5 | 0.00 | 0.00 | 0.00 | 90 | 1014.1 |
| 20260505121518 | -17 | 330 | 4.8 | 14.5 | 0.00 | 0.00 | 0.00 | 1014.1 | |
| 20260505121045 | 2 | 11 | 6.4 | 19.3 | 0.00 | 0.00 | 0.00 | 90 | 1013.9 |
| 20260505121009 | -17 | 339 | 3.2 | 19.3 | 0.00 | 0.00 | 0.00 | 1013.9 | |
| 20260505120557 | 2 | 330 | 8.0 | 19.3 | 0.00 | 0.00 | 0.00 | 90 | 1013.9 |
| 20260505120509 | -17 | 317 | 6.4 | 19.3 | 0.00 | 0.00 | 0.00 | 1013.9 | |
| 20260505120049 | 2 | 356 | 8.0 | 16.1 | 0.00 | 0.00 | 0.00 | 90 | 1013.8 |
| 20260505120016 | -17 | 356 | 6.4 | 16.1 | 0.00 | 0.00 | 0.00 | 1013.8 | |
| 20260505115618 | 3 | 339 | 4.8 | 14.5 | 0.00 | 0.00 | 0.00 | 90 | 1013.7 |
| 20260505115509 | -17 | 330 | 3.2 | 14.5 | 0.00 | 0.00 | 0.00 | 1013.7 | |
| 20260505115110 | 3 | 351 | 3.2 | 14.5 | 0.00 | 0.00 | 0.00 | 90 | 1013.7 |
| 20260505115007 | -17 | 354 | 0.0 | 16.1 | 0.00 | 0.00 | 0.00 | 1013.7 | |
| 20260505114543 | 3 | 327 | 8.0 | 17.7 | 0.00 | 0.00 | 0.00 | 90 | 1013.7 |
| 20260505114512 | -17 | 339 | 6.4 | 17.7 | 0.00 | 0.00 | 0.00 | 1013.8 | |
| 20260505114056 | 3 | 346 | 4.8 | 22.5 | 0.00 | 0.00 | 0.00 | 90 | 1013.7 |
| 20260505114010 | -17 | 336 | 3.2 | 20.9 | 0.00 | 0.00 | 0.00 | 1013.7 | |
| 20260505113551 | 3 | 339 | 4.8 | 22.5 | 0.00 | 0.00 | 0.00 | 89 | 1013.7 |
| 20260505113509 | -17 | 332 | 3.2 | 20.9 | 0.00 | 0.00 | 0.00 | 1013.7 | |
| 20260505113044 | 3 | 342 | 3.2 | 20.9 | 0.00 | 0.00 | 0.00 | 89 | 1013.6 |
| 20260505113019 | -17 | 340 | 3.2 | 19.3 | 0.00 | 0.00 | 0.00 | 1013.5 | |
| 20260505112555 | 3 | 2 | 9.7 | 20.9 | 0.00 | 0.00 | 0.00 | 89 | 1013.5 |
| 20260505112510 | -17 | 17 | 8.0 | 19.3 | 0.00 | 0.00 | 0.00 | 1013.5 | |
| 20260505112048 | 3 | 14 | 9.7 | 20.9 | 0.00 | 0.00 | 0.00 | 89 | 1013.6 |
| 20260505112007 | -17 | 27 | 9.7 | 19.3 | 0.00 | 0.00 | 0.00 | 1013.6 | |
| 20260505111600 | 3 | 39 | 11.3 | 17.7 | 0.00 | 0.00 | 0.00 | 89 | 1013.4 |
| 20260505111520 | -17 | 340 | 9.7 | 17.7 | 0.00 | 0.00 | 0.00 | 1013.4 | |
| 20260505111053 | 3 | 359 | 6.4 | 17.7 | 0.00 | 0.00 | 0.00 | 89 | 1013.4 |
| 20260505111008 | -17 | 19 | 6.4 | 19.3 | 0.00 | 0.00 | 0.00 | 1013.5 | |
| 20260505110546 | 4 | 357 | 8.0 | 22.5 | 0.00 | 0.00 | 0.00 | 90 | 1013.3 |
| 20260505110505 | -17 | 26 | 8.0 | 20.9 | 0.00 | 0.00 | 0.00 | 1013.3 | |
| 20260505102053 | 5 | 341 | 12.9 | 29.0 | 0.00 | 0.00 | 0.00 | 90 | 1012.3 |
| 20260505102007 | -17 | 15 | 12.9 | 27.4 | 0.00 | 0.00 | 0.00 | 1012.5 | |
| 20260505101607 | 5 | 326 | 9.7 | 25.7 | 0.00 | 0.00 | 0.00 | 89 | 1012.1 |
| 20260505101519 | -17 | 332 | 8.0 | 25.7 | 0.00 | 0.00 | 0.00 | 1012.3 | |
| 20260505101100 | 5 | 3 | 6.4 | 25.7 | 0.00 | 0.00 | 0.00 | 89 | 1012.1 |
| 20260505101006 | -17 | 10 | 4.8 | 25.7 | 0.00 | 0.00 | 0.00 | 1012.3 | |
| 20260505100554 | 5 | 342 | 8.0 | 24.1 | 0.00 | 0.00 | 0.00 | 90 | 1012.2 |
| 20260505100508 | -17 | 334 | 8.0 | 22.5 | 0.00 | 0.00 | 0.00 | 1012.3 | |
| 20260505100106 | 5 | 356 | 4.8 | 24.1 | 0.00 | 0.00 | 0.00 | 89 | 1012.1 |
| 20260505100011 | -17 | 357 | 3.2 | 24.1 | 0.00 | 0.00 | 0.00 | 1012.2 | |
| 20260505095557 | 5 | 325 | 8.0 | 24.1 | 0.00 | 0.00 | 0.00 | 89 | 1012.1 |
| 20260505095504 | -17 | 360 | 6.4 | 24.1 | 0.00 | 0.00 | 0.00 | 1012.1 | |
| 20260505095048 | 5 | 345 | 3.2 | 20.9 | 0.00 | 0.00 | 0.00 | 90 | 1011.9 |
| 20260505095015 | -17 | 352 | 3.2 | 19.3 | 0.00 | 0.00 | 0.00 | 1012.1 | |
| 20260505094541 | 5 | 344 | 6.4 | 20.9 | 0.00 | 0.00 | 0.00 | 90 | 1011.8 |
| 20260505094508 | -17 | 329 | 6.4 | 19.3 | 0.00 | 0.00 | 0.00 | 1012.0 | |
| 20260505094055 | 5 | 338 | 1.6 | 27.4 | 0.00 | 0.00 | 0.00 | 90 | 1011.7 |
| 20260505094009 | -17 | 302 | 1.6 | 29.0 | 0.00 | 0.00 | 0.00 | 1011.9 | |
| 20260505093548 | 5 | 313 | 9.7 | 27.4 | 0.00 | 0.00 | 0.00 | 89 | 1011.8 |
| 20260505093511 | -17 | 340 | 8.0 | 29.0 | 0.00 | 0.00 | 0.00 | 1011.9 | |
| 20260505093100 | 5 | 307 | 9.7 | 24.1 | 0.00 | 0.00 | 0.00 | 89 | 1011.8 |
| 20260505093006 | -17 | 321 | 8.0 | 24.1 | 0.00 | 0.00 | 0.00 | 1011.9 | |
| 20260505092553 | 6 | 301 | 6.4 | 24.1 | 0.00 | 0.00 | 0.00 | 89 | 1011.7 |
| 20260505092510 | -17 | 5 | 6.4 | 24.1 | 0.00 | 0.00 | 0.00 | 1011.9 | |
| 20260505092046 | 6 | 295 | 6.4 | 24.1 | 0.00 | 0.00 | 0.00 | 89 | 1011.8 |
| 20260505092007 | -17 | 328 | 4.8 | 24.1 | 0.00 | 0.00 | 0.00 | 1012.0 | |
| 20260505091558 | 6 | 319 | 4.8 | 19.3 | 0.00 | 0.00 | 0.00 | 89 | 1011.8 |
| 20260505091506 | -17 | 327 | 3.2 | 19.3 | 0.00 | 0.00 | 0.00 | 1011.9 | |
| 20260505091121 | 6 | 346 | 4.8 | 25.7 | 0.00 | 0.00 | 0.00 | 89 | 1011.7 |
| 20260505091007 | -17 | 325 | 3.2 | 25.7 | 0.00 | 0.00 | 0.00 | 1011.9 | |
| 20260505090552 | 6 | 1 | 9.7 | 25.7 | 0.00 | 0.00 | 0.00 | 89 | 1011.5 |
| 20260505090504 | -17 | 309 | 8.0 | 25.7 | 0.00 | 0.00 | 0.00 | 1011.7 | |
| 20260505090104 | 6 | 342 | 9.7 | 22.5 | 0.00 | 0.00 | 0.00 | 88 | 1011.6 |
| 20260505090037 | -17 | 330 | 9.7 | 20.9 | 0.00 | 0.00 | 0.00 | 1011.7 | |
| 20260505085555 | 6 | 312 | 1.6 | 22.5 | 0.00 | 0.00 | 0.00 | 89 | 1011.6 |
| 20260505085507 | -17 | 327 | 1.6 | 20.9 | 0.00 | 0.00 | 0.00 | 1011.8 | |
| 20260505085048 | 6 | 348 | 6.4 | 22.5 | 0.00 | 0.00 | 0.00 | 88 | 1011.6 |
| 20260505085004 | -17 | 293 | 4.8 | 20.9 | 0.00 | 0.00 | 0.00 | 1011.8 | |
| 20260505084543 | 7 | 311 | 6.4 | 17.7 | 0.00 | 0.00 | 0.00 | 88 | 1011.6 |
| 20260505084522 | -17 | 346 | 4.8 | 22.5 | 0.00 | 0.00 | 0.00 | 1011.6 | |
| 20260505084111 | 7 | 319 | 3.2 | 20.9 | 0.00 | 0.00 | 0.00 | 88 | 1011.5 |
| 20260505084012 | -17 | 338 | 3.2 | 22.5 | 0.00 | 0.00 | 0.00 | 1011.7 | |
| 20260505083618 | 7 | 288 | 8.0 | 22.5 | 0.00 | 0.00 | 0.00 | 88 | 1011.6 |
| 20260505083505 | -17 | 336 | 6.4 | 24.1 | 0.00 | 0.00 | 0.00 | 1011.7 | |
| 20260505083050 | 8 | 324 | 11.3 | 22.5 | 0.00 | 0.00 | 0.00 | 88 | 1011.4 |
| 20260505083018 | -17 | 350 | 11.3 | 24.1 | 0.00 | 0.00 | 0.00 | 1011.7 | |
| 20260505082602 | 8 | 7 | 1.6 | 8.0 | 0.00 | 0.00 | 0.00 | 89 | 1011.6 |
| 20260505082504 | -17 | 350 | 0.0 | 6.4 | 0.00 | 0.00 | 0.00 | 1011.7 | |
| 20260505082054 | 8 | 3 | 0.0 | 1.6 | 0.00 | 0.00 | 0.00 | 89 | 1011.5 |
| 20260505082007 | -17 | 3 | 0.0 | 1.6 | 0.00 | 0.00 | 0.00 | 1011.6 | |
| 20260505081546 | 8 | 169 | 0.0 | 0.0 | 0.00 | 0.00 | 0.00 | 89 | 1011.6 |
| 20260505081524 | -17 | 169 | 0.0 | 0.0 | 0.00 | 0.00 | 0.00 | 1011.7 | |
| 20260505081058 | 8 | 169 | 0.0 | 0.0 | 0.00 | 0.00 | 0.00 | 89 | 1011.4 |
| 20260505081005 | -17 | 169 | 0.0 | 0.0 | 0.00 | 0.00 | 0.00 | 1011.7 | |
| 20260505080551 | 8 | 169 | 0.0 | 0.0 | 0.00 | 0.00 | 0.00 | 89 | 1011.5 |
| 20260505080508 | -17 | 169 | 0.0 | 0.0 | 0.00 | 0.00 | 0.00 | 1011.8 | |
| 20260505080033 | -17 | 169 | 0.0 | 0.0 | 0.00 | 0.00 | 0.00 | 1011.6 | |
| 20260505075554 | 8 | 169 | 0.0 | 0.0 | 0.00 | 0.00 | 0.00 | 89 | 1011.2 |
| 20260505075506 | -17 | 169 | 0.0 | 0.0 | 0.00 | 0.00 | 0.00 | 1011.4 | |
| 20260505075046 | 8 | 169 | 0.0 | 0.0 | 0.00 | 0.00 | 0.00 | 89 | 1011.3 |
| 20260505075007 | -17 | 169 | 0.0 | 0.0 | 0.00 | 0.00 | 0.00 | 1011.6 | |
| 20260505074558 | 8 | 169 | 0.0 | 0.0 | 0.00 | 0.00 | 0.00 | 89 | 1011.3 |
| 20260505074511 | -17 | 169 | 0.0 | 0.0 | 0.00 | 0.00 | 0.00 | 1011.5 | |
| 20260505074051 | 8 | 169 | 0.0 | 0.0 | 0.00 | 0.00 | 0.00 | 89 | 1011.3 |
| 20260505074007 | -17 | 169 | 0.0 | 0.0 | 0.00 | 0.00 | 0.00 | 1011.6 | |
| 20260505073544 | 8 | 169 | 0.0 | 0.0 | 0.00 | 0.00 | 0.00 | 89 | 1011.4 |
| 20260505073507 | -17 | 169 | 0.0 | 0.0 | 0.00 | 0.00 | 0.00 | 1011.6 | |
| 20260505073116 | 8 | 169 | 0.0 | 0.0 | 0.00 | 0.00 | 0.00 | 89 | 1011.4 |
| 20260505073014 | -17 | 169 | 0.0 | 0.0 | 0.00 | 0.00 | 0.00 | 1011.7 | |
| 20260505072607 | 8 | 169 | 0.0 | 0.0 | 0.00 | 0.00 | 0.00 | 89 | 1011.3 |
| 20260505072507 | -17 | 169 | 0.0 | 0.0 | 0.00 | 0.00 | 0.00 | 1011.5 | |
| 20260505072059 | 8 | 169 | 0.0 | 0.0 | 0.00 | 0.00 | 0.00 | 89 | 1011.2 |
| 20260505072008 | -17 | 169 | 0.0 | 0.0 | 0.00 | 0.00 | 0.00 | 1011.5 | |
| 20260505071551 | 8 | 169 | 0.0 | 0.0 | 0.00 | 0.00 | 0.00 | 89 | 1011.4 |
| 20260505071516 | -17 | 169 | 0.0 | 0.0 | 0.00 | 0.00 | 0.00 | 1011.6 | |
| 20260505071042 | 8 | 169 | 0.0 | 0.0 | 0.00 | 0.00 | 0.00 | 89 | 1011.4 |
| 20260505071010 | -17 | 169 | 0.0 | 0.0 | 0.00 | 0.00 | 0.00 | 1011.6 | |
| 20260505070557 | 8 | 168 | 0.0 | 0.0 | 0.00 | 0.00 | 0.00 | 89 | 1011.4 |
| 20260505070508 | -17 | 168 | 0.0 | 0.0 | 0.00 | 0.00 | 0.00 | 1011.7 | |
| 20260505070106 | 8 | 168 | 0.0 | 0.0 | 0.00 | 0.00 | 0.00 | 89 | 1011.6 |
| 20260505070022 | -17 | 168 | 0.0 | 0.0 | 0.00 | 0.00 | 0.00 | 1011.8 | |
| 20260505065559 | 8 | 167 | 0.0 | 0.0 | 0.00 | 0.00 | 0.00 | 88 | 1011.6 |
| 20260505065507 | -17 | 167 | 0.0 | 0.0 | 0.00 | 0.00 | 0.00 | 1011.8 | |
| 20260505065050 | 8 | 167 | 0.0 | 0.0 | 0.00 | 0.00 | 0.00 | 88 | 1011.4 |
| 20260505065006 | -17 | 167 | 0.0 | 0.0 | 0.00 | 0.00 | 0.00 | 1011.7 | |
| 20260505064544 | 8 | 167 | 0.0 | 0.0 | 0.00 | 0.00 | 0.00 | 88 | 1011.6 |
| 20260505064516 | -17 | 167 | 0.0 | 0.0 | 0.00 | 0.00 | 0.00 | 1011.8 | |
| 20260505064057 | 8 | 167 | 0.0 | 0.0 | 0.00 | 0.00 | 0.00 | 88 | 1011.6 |
| 20260505064009 | -17 | 167 | 0.0 | 0.0 | 0.00 | 0.00 | 0.00 | 1011.8 | |
| 20260505063550 | 8 | 167 | 0.0 | 1.6 | 0.00 | 0.00 | 0.00 | 88 | 1011.6 |
| 20260505063515 | -17 | 167 | 0.0 | 6.4 | 0.00 | 0.00 | 0.00 | 1011.7 | |
| 20260505063103 | 8 | 167 | 0.0 | 6.4 | 0.00 | 0.00 | 0.00 | 88 | 1011.6 |
| 20260505063016 | -17 | 167 | 0.0 | 6.4 | 0.00 | 0.00 | 0.00 | 1011.7 | |
| 20260505062554 | 7 | 234 | 0.0 | 1.6 | 0.00 | 0.00 | 0.00 | 88 | 1011.6 |
| 20260505062507 | -17 | 234 | 0.0 | 1.6 | 0.00 | 0.00 | 0.00 | 1011.7 | |
| 20260505062107 | 7 | 237 | 0.0 | 0.0 | 0.00 | 0.00 | 0.00 | 88 | 1011.6 |
| 20260505062012 | -17 | 237 | 0.0 | 0.0 | 0.00 | 0.00 | 0.00 | 1011.8 | |
| 20260505061600 | 7 | 238 | 0.0 | 0.0 | 0.00 | 0.00 | 0.00 | 88 | 1011.5 |
| 20260505061520 | -17 | 238 | 0.0 | 0.0 | 0.00 | 0.00 | 0.00 | 1011.7 | |
| 20260505061121 | 7 | 238 | 0.0 | 0.0 | 0.00 | 0.00 | 0.00 | 87 | 1011.5 |
| 20260505061005 | -17 | 238 | 0.0 | 0.0 | 0.00 | 0.00 | 0.00 | 1011.8 | |
| 20260505060552 | 7 | 238 | 0.0 | 0.0 | 0.00 | 0.00 | 0.00 | 87 | 1011.6 |
| 20260505060510 | -17 | 238 | 0.0 | 0.0 | 0.00 | 0.00 | 0.00 | 1011.9 | |
| 20260505060044 | 7 | 238 | 0.0 | 0.0 | 0.00 | 0.00 | 0.00 | 87 | 1011.6 |
| 20260505060024 | -17 | 238 | 0.0 | 0.0 | 0.00 | 0.00 | 0.00 | 1011.8 | |
| 20260505055558 | 7 | 238 | 0.0 | 0.0 | 0.00 | 0.00 | 0.00 | 87 | 1011.6 |
| 20260505055511 | -17 | 238 | 0.0 | 0.0 | 0.00 | 0.00 | 0.00 | 1011.8 | |
| 20260505055110 | 8 | 238 | 0.0 | 0.0 | 0.00 | 0.00 | 0.00 | 87 | 1011.6 |
| 20260505055013 | -17 | 238 | 0.0 | 0.0 | 0.00 | 0.00 | 0.00 | 1011.8 | |
| 20260505054630 | 8 | 238 | 0.0 | 0.0 | 0.00 | 0.00 | 0.00 | 87 | 1011.7 |
| 20260505054511 | -17 | 238 | 0.0 | 0.0 | 0.00 | 0.00 | 0.00 | 1011.9 | |
| 20260505054045 | 8 | 238 | 0.0 | 0.0 | 0.00 | 0.00 | 0.00 | 87 | 1011.7 |
| 20260505054010 | -17 | 238 | 0.0 | 0.0 | 0.00 | 0.00 | 0.00 | 1011.8 | |
| 20260505053558 | 8 | 238 | 0.0 | 0.0 | 0.00 | 0.00 | 0.00 | 87 | 1011.4 |
| 20260505053511 | -17 | 238 | 0.0 | 0.0 | 0.00 | 0.00 | 0.00 | 1011.6 | |
| 20260505053050 | 8 | 238 | 0.0 | 0.0 | 0.00 | 0.00 | 0.00 | 87 | 1011.4 |
| 20260505053016 | -17 | 238 | 0.0 | 0.0 | 0.00 | 0.00 | 0.00 | 1011.6 | |
| 20260505052544 | 8 | 238 | 0.0 | 0.0 | 0.00 | 0.00 | 0.00 | 87 | 1011.4 |
| 20260505052515 | -17 | 238 | 0.0 | 0.0 | 0.00 | 0.00 | 0.00 | 1011.6 | |
| 20260505052057 | 8 | 238 | 0.0 | 0.0 | 0.00 | 0.00 | 0.00 | 87 | 1011.4 |
| 20260505052006 | -17 | 238 | 0.0 | 0.0 | 0.00 | 0.00 | 0.00 | 1011.6 | |
| 20260505051548 | 8 | 238 | 0.0 | 0.0 | 0.00 | 0.00 | 0.00 | 87 | 1011.5 |
| 20260505051521 | -17 | 238 | 0.0 | 0.0 | 0.00 | 0.00 | 0.00 | 1011.7 | |
| 20260505051058 | 8 | 238 | 0.0 | 0.0 | 0.00 | 0.00 | 0.00 | 87 | 1011.7 |
| 20260505051006 | -17 | 238 | 0.0 | 0.0 | 0.00 | 0.00 | 0.00 | 1011.9 | |
| 20260505050552 | 8 | 238 | 0.0 | 0.0 | 0.00 | 0.00 | 0.00 | 86 | 1011.8 |
| 20260505050509 | -17 | 238 | 0.0 | 0.0 | 0.00 | 0.00 | 0.00 | 1011.9 | |
| 20260505041558 | 8 | 238 | 0.0 | 0.0 | 0.00 | 0.00 | 0.00 | 84 | 1012.0 |
| 20260505041531 | -17 | 238 | 0.0 | 0.0 | 0.00 | 0.00 | 0.00 | 1012.2 | |
| 20260505041051 | 8 | 238 | 0.0 | 0.0 | 0.00 | 0.00 | 0.00 | 84 | 1012.3 |
| 20260505041009 | -17 | 238 | 0.0 | 0.0 | 0.00 | 0.00 | 0.00 | 1012.5 | |
| 20260505040544 | 8 | 238 | 0.0 | 3.2 | 0.00 | 0.00 | 0.00 | 84 | 1012.3 |
| 20260505040512 | -17 | 238 | 0.0 | 3.2 | 0.00 | 0.00 | 0.00 | 1012.4 | |
| 20260505040057 | 8 | 238 | 0.0 | 3.2 | 0.00 | 0.00 | 0.00 | 83 | 1012.2 |
| 20260505040017 | -17 | 238 | 0.0 | 3.2 | 0.00 | 0.00 | 0.00 | 1012.2 | |
| 20260505035551 | 8 | 234 | 0.0 | 1.6 | 0.00 | 0.00 | 0.00 | 83 | 1012.1 |
| 20260505035507 | -17 | 232 | 0.0 | 1.6 | 0.00 | 0.00 | 0.00 | 1012.2 | |
| 20260505035044 | 8 | 238 | 0.0 | 0.0 | 0.00 | 0.00 | 0.00 | 82 | 1012.1 |
| 20260505035007 | -17 | 238 | 0.0 | 0.0 | 0.00 | 0.00 | 0.00 | 1012.2 | |
| 20260505034553 | 9 | 238 | 0.0 | 0.0 | 0.00 | 0.00 | 0.00 | 82 | 1012.1 |
| 20260505034514 | -17 | 238 | 0.0 | 0.0 | 0.00 | 0.00 | 0.00 | 1012.2 | |
| 20260505034045 | 9 | 238 | 0.0 | 0.0 | 0.00 | 0.00 | 0.00 | 81 | 1012.2 |
| 20260505034010 | -17 | 238 | 0.0 | 4.8 | 0.00 | 0.00 | 0.00 | 1012.3 | |
| 20260505033558 | 9 | 234 | 0.0 | 9.7 | 0.00 | 0.00 | 0.00 | 80 | 1012.2 |
| 20260505033508 | -17 | 261 | 0.0 | 11.3 | 0.00 | 0.00 | 0.00 | 1012.3 | |
| 20260505033051 | 9 | 284 | 3.2 | 11.3 | 0.00 | 0.00 | 0.00 | 80 | 1012.5 |
| 20260505033015 | -17 | 275 | 1.6 | 11.3 | 0.00 | 0.00 | 0.00 | 1012.5 | |
| 20260505032544 | 9 | 286 | 3.2 | 12.9 | 0.00 | 0.00 | 0.00 | 79 | 1012.3 |
| 20260505032508 | -17 | 286 | 1.6 | 14.5 | 0.00 | 0.00 | 0.00 | 1012.3 | |
| 20260505032115 | 10 | 275 | 1.6 | 12.9 | 0.00 | 0.00 | 0.00 | 78 | 1012.1 |
| 20260505032008 | -17 | 302 | 1.6 | 16.1 | 0.00 | 0.00 | 0.00 | 1012.2 | |
| 20260505031547 | 10 | 271 | 3.2 | 16.1 | 0.00 | 0.00 | 0.00 | 77 | 1012.0 |
| 20260505031519 | -17 | 305 | 1.6 | 17.7 | 0.00 | 0.00 | 0.00 | 1012.0 | |
| 20260505031119 | 10 | 283 | 1.6 | 17.7 | 0.00 | 0.00 | 0.00 | 75 | 1011.8 |
| 20260505031010 | -17 | 280 | 0.0 | 19.3 | 0.00 | 0.00 | 0.00 | 1011.9 | |
| 20260505030551 | 10 | 317 | 6.4 | 17.7 | 0.00 | 0.00 | 0.00 | 73 | 1011.8 |
| 20260505030509 | -17 | 326 | 6.4 | 19.3 | 0.00 | 0.00 | 0.00 | 1011.9 | |
| 20260505030045 | 11 | 261 | 3.2 | 12.9 | 0.00 | 0.00 | 0.00 | 71 | 1011.6 |
| 20260505030020 | -17 | 256 | 3.2 | 14.5 | 0.00 | 0.00 | 0.00 | 1011.7 | |
| 20260505025557 | 11 | 256 | 1.6 | 8.0 | 0.00 | 0.00 | 0.00 | 69 | 1011.4 |
| 20260505025507 | -17 | 241 | 0.0 | 8.0 | 0.00 | 0.00 | 0.00 | 1011.6 | |
| 20260505025051 | 11 | 281 | 1.6 | 11.3 | 0.00 | 0.00 | 0.00 | 68 | 1011.2 |
| 20260505025007 | -17 | 280 | 0.0 | 9.7 | 0.00 | 0.00 | 0.00 | 1011.4 | |
| 20260505024546 | 11 | 296 | 0.0 | 11.3 | 0.00 | 0.00 | 0.00 | 68 | 1011.1 |
| 20260505024518 | -17 | 288 | 0.0 | 16.1 | 0.00 | 0.00 | 0.00 | 1011.2 | |
| 20260505024058 | 11 | 337 | 0.0 | 14.5 | 0.00 | 0.00 | 0.00 | 67 | 1010.9 |
| 20260505024013 | -17 | 340 | 0.0 | 16.1 | 0.00 | 0.00 | 0.00 | 1011.1 | |
| 20260505023550 | 11 | 5 | 3.2 | 14.5 | 0.00 | 0.00 | 0.00 | 66 | 1010.9 |
| 20260505023507 | -17 | 5 | 1.6 | 16.1 | 0.00 | 0.00 | 0.00 | 1011.0 | |
| 20260505023042 | 11 | 327 | 0.0 | 11.3 | 0.00 | 0.00 | 0.00 | 66 | 1010.7 |
| 20260505023019 | -17 | 327 | 0.0 | 9.7 | 0.00 | 0.00 | 0.00 | 1010.9 | |
| 20260505022556 | 11 | 359 | 1.6 | 11.3 | 0.00 | 0.00 | 0.00 | 65 | 1010.6 |
| 20260505022508 | -17 | 333 | 1.6 | 17.7 | 0.00 | 0.00 | 0.00 | 1010.8 | |
| 20260505022049 | 11 | 3 | 1.6 | 17.7 | 0.00 | 0.00 | 0.00 | 63 | 1010.5 |
| 20260505022009 | -17 | 12 | 1.6 | 17.7 | 0.00 | 0.00 | 0.00 | 1010.7 | |
| 20260505021542 | 12 | 347 | 1.6 | 17.7 | 0.00 | 0.00 | 0.00 | 62 | 1010.5 |
| 20260505021523 | -17 | 336 | 0.0 | 16.1 | 0.00 | 0.00 | 0.00 | 1010.6 | |
| 20260505021058 | 12 | 327 | 3.2 | 14.5 | 0.00 | 0.00 | 0.00 | 60 | 1010.4 |
| 20260505021007 | -17 | 349 | 1.6 | 17.7 | 0.00 | 0.00 | 0.00 | 1010.5 | |
| 20260505020551 | 12 | 307 | 6.4 | 17.7 | 0.00 | 0.00 | 0.00 | 59 | 1010.4 |
| 20260505020506 | -17 | 325 | 3.2 | 17.7 | 0.00 | 0.00 | 0.00 | 1010.6 | |
| 20260505020044 | 12 | 330 | 3.2 | 17.7 | 0.00 | 0.00 | 0.00 | 59 | 1010.6 |
| 20260505020019 | -17 | 348 | 1.6 | 9.7 | 0.00 | 0.00 | 0.00 | 1010.7 | |
| 20260505015556 | 13 | 145 | 0.0 | 0.0 | 0.00 | 0.00 | 0.00 | 58 | 1010.4 |
| 20260505015512 | -17 | 145 | 0.0 | 0.0 | 0.00 | 0.00 | 0.00 | 1010.6 | |
| 20260505015049 | 13 | 145 | 0.0 | 0.0 | 0.00 | 0.00 | 0.00 | 59 | 1010.4 |
| 20260505015007 | -17 | 145 | 0.0 | 0.0 | 0.00 | 0.00 | 0.00 | 1010.4 | |
| 20260505014622 | 13 | 145 | 0.0 | 0.0 | 0.00 | 0.00 | 0.00 | 59 | 1010.3 |
| 20260505014516 | -17 | 145 | 0.0 | 0.0 | 0.00 | 0.00 | 0.00 | 1010.2 | |
| 20260505014052 | 13 | 145 | 0.0 | 0.0 | 0.00 | 0.00 | 0.00 | 56 | 1010.1 |
| 20260505014007 | -17 | 145 | 0.0 | 0.0 | 0.00 | 0.00 | 0.00 | 1010.0 | |
| 20260505013617 | 13 | 145 | 0.0 | 0.0 | 0.00 | 0.00 | 0.00 | 56 | 1009.9 |
| 20260505013507 | -17 | 145 | 0.0 | 0.0 | 0.00 | 0.00 | 0.00 | 1009.8 | |
| 20260505013048 | 13 | 145 | 0.0 | 0.0 | 0.00 | 0.00 | 0.00 | 56 | 1009.9 |
| 20260505013019 | -17 | 145 | 0.0 | 0.0 | 0.00 | 0.00 | 0.00 | 1009.8 | |
| 20260505012602 | 13 | 145 | 0.0 | 0.0 | 0.00 | 0.00 | 0.00 | 56 | 1010.0 |
| 20260505012514 | -17 | 145 | 0.0 | 0.0 | 0.00 | 0.00 | 0.00 | 1010.0 | |
| 20260505012055 | 13 | 145 | 0.0 | 0.0 | 0.00 | 0.00 | 0.00 | 56 | 1010.1 |
| 20260505012010 | -17 | 145 | 0.0 | 0.0 | 0.00 | 0.00 | 0.00 | 1010.0 | |
| 20260505011547 | 13 | 145 | 0.0 | 0.0 | 0.00 | 0.00 | 0.00 | 56 | 1010.0 |
| 20260505011526 | -17 | 145 | 0.0 | 0.0 | 0.00 | 0.00 | 0.00 | 1009.9 | |
| 20260505011100 | 13 | 145 | 0.0 | 0.0 | 0.00 | 0.00 | 0.00 | 55 | 1010.0 |
| 20260505011008 | -17 | 145 | 0.0 | 0.0 | 0.00 | 0.00 | 0.00 | 1009.8 | |
| 20260505010612 | 13 | 145 | 0.0 | 0.0 | 0.00 | 0.00 | 0.00 | 54 | 1010.0 |
| 20260505010507 | -17 | 145 | 0.0 | 0.0 | 0.00 | 0.00 | 0.00 | 1010.0 | |
| 20260505010016 | -17 | 145 | 0.0 | 0.0 | 0.00 | 0.00 | 0.00 | 1010.0 | |
| 20260505005554 | 13 | 144 | 0.0 | 0.0 | 0.00 | 0.00 | 0.00 | 55 | 1010.0 |
| 20260505005504 | -17 | 156 | 0.0 | 0.0 | 0.00 | 0.00 | 0.00 | 1010.0 | |
| 20260505005045 | 13 | 5 | 0.0 | 0.0 | 0.00 | 0.00 | 0.00 | 55 | 1010.0 |
| 20260505005007 | -17 | 5 | 0.0 | 0.0 | 0.00 | 0.00 | 0.00 | 1010.0 | |
| 20260505004559 | 14 | 5 | 0.0 | 0.0 | 0.00 | 0.00 | 0.00 | 54 | 1010.1 |
| 20260505004504 | -17 | 5 | 0.0 | 0.0 | 0.00 | 0.00 | 0.00 | 1010.2 | |
| 20260505004121 | 14 | 2 | 0.0 | 3.2 | 0.00 | 0.00 | 0.00 | 54 | 1010.2 |
| 20260505004007 | -17 | 2 | 0.0 | 6.4 | 0.00 | 0.00 | 0.00 | 1010.2 | |
| 20260505003554 | 15 | 1 | 0.0 | 6.4 | 0.00 | 0.00 | 0.00 | 51 | 1010.1 |
| 20260505003507 | -17 | 13 | 0.0 | 6.4 | 0.00 | 0.00 | 0.00 | 1010.1 | |
| 20260505003053 | 15 | 299 | 1.6 | 6.4 | 0.00 | 0.00 | 0.00 | 50 | 1010.2 |
| 20260505003019 | -17 | 296 | 0.0 | 6.4 | 0.00 | 0.00 | 0.00 | 1010.2 | |
| 20260505002553 | 15 | 266 | 0.0 | 8.0 | 0.00 | 0.00 | 0.00 | 48 | 1010.2 |
| 20260505002507 | -17 | 266 | 0.0 | 8.0 | 0.00 | 0.00 | 0.00 | 1010.2 | |
| 20260505002046 | 15 | 261 | 0.0 | 8.0 | 0.00 | 0.00 | 0.00 | 46 | 1010.3 |
| 20260505002003 | -17 | 261 | 0.0 | 8.0 | 0.00 | 0.00 | 0.00 | 1010.2 | |
| 20260505001556 | 15 | 261 | 1.6 | 4.8 | 0.00 | 0.00 | 0.00 | 45 | 1010.2 |
| 20260505001518 | -17 | 261 | 0.0 | 4.8 | 0.00 | 0.00 | 0.00 | 1010.1 | |
| 20260505001051 | 15 | 261 | 0.0 | 3.2 | 0.00 | 0.00 | 0.00 | 44 | 1010.1 |
| 20260505001006 | -17 | 261 | 0.0 | 3.2 | 0.00 | 0.00 | 0.00 | 1010.0 | |
| 20260505000544 | 15 | 251 | 0.0 | 3.2 | 0.00 | 0.00 | 0.00 | 45 | 1009.8 |
| 20260505000503 | -17 | 248 | 0.0 | 3.2 | 0.00 | 0.00 | 0.00 | 1009.8 | |
| 20260505000053 | 15 | 278 | 0.0 | 4.8 | 0.00 | 0.00 | 0.00 | 44 | 1009.7 |
| 20260505000028 | -17 | 278 | 0.0 | 12.9 | 0.00 | 0.00 | 0.00 | 1009.7 | |
| 20260504235544 | 16 | 330 | 1.6 | 12.9 | 0.00 | 0.00 | 0.00 | 42 | 1009.6 |
| 20260504235503 | -17 | 330 | 0.0 | 14.5 | 0.00 | 0.00 | 0.00 | 1009.6 | |
| 20260504235058 | 16 | 271 | 3.2 | 14.5 | 0.00 | 0.00 | 0.00 | 42 | 1009.3 |
| 20260504235004 | -17 | 281 | 3.2 | 16.1 | 0.00 | 0.00 | 0.00 | 1009.3 | |
| 20260504234551 | 16 | 301 | 3.2 | 14.5 | 0.00 | 0.00 | 0.00 | 41 | 1009.4 |
| 20260504234516 | -17 | 271 | 4.8 | 14.5 | 0.00 | 0.00 | 0.00 | 1009.3 | |
| 20260504234045 | 16 | 313 | 0.0 | 14.5 | 0.00 | 0.00 | 0.00 | 42 | 1009.1 |
| 20260504234004 | -17 | 313 | 0.0 | 14.5 | 0.00 | 0.00 | 0.00 | 1009.2 | |
| 20260504233558 | 16 | 309 | 3.2 | 14.5 | 0.00 | 0.00 | 0.00 | 41 | 1009.1 |
| 20260504233508 | -17 | 292 | 3.2 | 14.5 | 0.00 | 0.00 | 0.00 | 1009.2 | |
| 20260504233112 | 16 | 330 | 3.2 | 14.5 | 0.00 | 0.00 | 0.00 | 41 | 1009.0 |
| 20260504233014 | -17 | 294 | 1.6 | 14.5 | 0.00 | 0.00 | 0.00 | 1009.1 | |
| 20260504232544 | 16 | 336 | 1.6 | 16.1 | 0.00 | 0.00 | 0.00 | 40 | 1009.0 |
| 20260504232503 | -17 | 313 | 0.0 | 16.1 | 0.00 | 0.00 | 0.00 | 1009.1 | |
| 20260504232058 | 16 | 313 | 0.0 | 19.3 | 0.00 | 0.00 | 0.00 | 40 | 1009.0 |
| 20260504232007 | -17 | 313 | 1.6 | 19.3 | 0.00 | 0.00 | 0.00 | 1009.1 | |
| 20260504231550 | 16 | 299 | 4.8 | 19.3 | 0.00 | 0.00 | 0.00 | 40 | 1009.1 |
| 20260504231514 | -17 | 310 | 6.4 | 22.5 | 0.00 | 0.00 | 0.00 | 1009.1 | |
| 20260504231101 | 16 | 321 | 8.0 | 22.5 | 0.00 | 0.00 | 0.00 | 39 | 1009.0 |
| 20260504231003 | -17 | 360 | 6.4 | 22.5 | 0.00 | 0.00 | 0.00 | 1009.1 | |
| 20260504230554 | 16 | 327 | 8.0 | 29.0 | 0.00 | 0.00 | 0.00 | 39 | 1008.9 |
| 20260504230506 | -17 | 305 | 6.4 | 29.0 | 0.00 | 0.00 | 0.00 | 1009.0 | |
| 20260504230045 | 17 | 330 | 11.3 | 29.0 | 0.00 | 0.00 | 0.00 | 38 | 1008.9 |
| 20260504230016 | -17 | 359 | 11.3 | 29.0 | 0.00 | 0.00 | 0.00 | 1008.9 | |
| 20260504225559 | 17 | 350 | 11.3 | 25.7 | 0.00 | 0.00 | 0.00 | 38 | 1008.9 |
| 20260504225510 | -17 | 298 | 12.9 | 24.1 | 0.00 | 0.00 | 0.00 | 1009.0 | |
| 20260504225100 | 17 | 10 | 12.9 | 25.7 | 0.00 | 0.00 | 0.00 | 37 | 1008.9 |
| 20260504225006 | -17 | 334 | 11.3 | 24.1 | 0.00 | 0.00 | 0.00 | 1009.0 | |
| 20260504224622 | 17 | 331 | 8.0 | 20.9 | 0.00 | 0.00 | 0.00 | 38 | 1009.0 |
| 20260504224518 | -17 | 17 | 3.2 | 16.1 | 0.00 | 0.00 | 0.00 | 1009.1 | |
| 20260504224053 | 17 | 326 | 4.8 | 16.1 | 0.00 | 0.00 | 0.00 | 38 | 1009.0 |
| 20260504224006 | -17 | 323 | 4.8 | 16.1 | 0.00 | 0.00 | 0.00 | 1009.0 | |
| 20260504223556 | 16 | 357 | 9.7 | 16.1 | 0.00 | 0.00 | 0.00 | 37 | 1008.9 |
| 20260504223508 | -17 | 353 | 6.4 | 16.1 | 0.00 | 0.00 | 0.00 | 1009.0 | |
| 20260504223050 | 16 | 321 | 1.6 | 12.9 | 0.00 | 0.00 | 0.00 | 40 | 1008.9 |
| 20260504223006 | -17 | 307 | 1.6 | 14.5 | 0.00 | 0.00 | 0.00 | 1009.1 | |
| 20260504222543 | 16 | 306 | 1.6 | 16.1 | 0.00 | 0.00 | 0.00 | 39 | 1009.2 |
| 20260504222506 | -17 | 340 | 0.0 | 17.7 | 0.00 | 0.00 | 0.00 | 1009.3 | |
| 20260504222057 | 16 | 336 | 8.0 | 20.9 | 0.00 | 0.00 | 0.00 | 39 | 1009.1 |
| 20260504222007 | -17 | 305 | 6.4 | 19.3 | 0.00 | 0.00 | 0.00 | 1009.2 | |
| 20260504221608 | 16 | 347 | 6.4 | 20.9 | 0.00 | 0.00 | 0.00 | 38 | 1009.0 |
| 20260504221520 | -17 | 5 | 4.8 | 20.9 | 0.00 | 0.00 | 0.00 | 1009.1 | |
| 20260504221114 | 16 | 350 | 8.0 | 30.6 | 0.00 | 0.00 | 0.00 | 37 | 1008.8 |
| 20260504221006 | -17 | 350 | 8.0 | 30.6 | 0.00 | 0.00 | 0.00 | 1009.0 | |
| 20260504220545 | 17 | 330 | 16.1 | 30.6 | 0.00 | 0.00 | 0.00 | 36 | 1008.7 |
| 20260504220503 | -17 | 346 | 14.5 | 30.6 | 0.00 | 0.00 | 0.00 | 1008.9 | |
| 20260504220058 | 17 | 348 | 4.8 | 22.5 | 0.00 | 0.00 | 0.00 | 34 | 1008.5 |
| 20260504220020 | -17 | 339 | 3.2 | 20.9 | 0.00 | 0.00 | 0.00 | 1008.7 | |
| 20260504215549 | 17 | 338 | 11.3 | 24.1 | 0.00 | 0.00 | 0.00 | 33 | 1008.2 |
| 20260504215507 | -17 | 360 | 11.3 | 22.5 | 0.00 | 0.00 | 0.00 | 1008.4 | |
| 20260504215120 | 17 | 5 | 9.7 | 30.6 | 0.00 | 0.00 | 0.00 | 33 | 1008.1 |
| 20260504215006 | -17 | 17 | 9.7 | 32.2 | 0.00 | 0.00 | 0.00 | 1008.3 | |
| 20260504214550 | 18 | 348 | 8.0 | 35.4 | 0.00 | 0.00 | 0.00 | 32 | 1008.1 |
| 20260504214517 | -17 | 23 | 6.4 | 32.2 | 0.00 | 0.00 | 0.00 | 1008.2 | |
| 20260504214044 | 19 | 14 | 16.1 | 35.4 | 0.00 | 0.00 | 0.00 | 30 | 1007.9 |
| 20260504214003 | -17 | 347 | 16.1 | 32.2 | 0.00 | 0.00 | 0.00 | 1008.1 | |
| 20260504213555 | 20 | 343 | 16.1 | 22.5 | 0.00 | 0.00 | 0.00 | 28 | 1007.7 |
| 20260504213507 | -17 | 350 | 16.1 | 24.1 | 0.00 | 0.00 | 0.00 | 1007.9 | |
| 20260504213047 | 21 | 15 | 4.8 | 19.3 | 0.00 | 0.00 | 0.00 | 25 | 1007.3 |
| 20260504213041 | -17 | 22 | 1.6 | 19.3 | 0.00 | 0.00 | 0.00 | 1007.5 | |
| 20260504212600 | 21 | 21 | 3.2 | 9.7 | 0.00 | 0.00 | 0.00 | 26 | 1007.5 |
| 20260504212503 | -17 | 48 | 1.6 | 9.7 | 0.00 | 0.00 | 0.00 | 1007.7 | |
| 20260504212120 | 21 | 352 | 0.0 | 1.6 | 0.00 | 0.00 | 0.00 | 29 | 1007.5 |
| 20260504212009 | -17 | 82 | 0.0 | 1.6 | 0.00 | 0.00 | 0.00 | 1007.7 | |
| 20260504211550 | 21 | 68 | 0.0 | 0.0 | 0.00 | 0.00 | 0.00 | 30 | 1007.5 |
| 20260504211516 | -17 | 44 | 0.0 | 0.0 | 0.00 | 0.00 | 0.00 | 1007.8 | |
| 20260504211103 | 20 | 38 | 0.0 | 0.0 | 0.00 | 0.00 | 0.00 | 29 | 1007.7 |
| 20260504211003 | -17 | 38 | 0.0 | 0.0 | 0.00 | 0.00 | 0.00 | 1008.0 | |
| 20260504210616 | 20 | 37 | 0.0 | 0.0 | 0.00 | 0.00 | 0.00 | 31 | 1007.8 |
| 20260504210508 | -17 | 44 | 0.0 | 0.0 | 0.00 | 0.00 | 0.00 | 1008.0 | |
| 20260504210047 | 20 | 1 | 0.0 | 0.0 | 0.00 | 0.00 | 0.00 | 31 | 1007.8 |
| 20260504210014 | -17 | 344 | 0.0 | 0.0 | 0.00 | 0.00 | 0.00 | 1008.0 | |
| 20260504205552 | 20 | 343 | 0.0 | 0.0 | 0.00 | 0.00 | 0.00 | 30 | 1007.9 |
| 20260504205506 | -17 | 343 | 0.0 | 0.0 | 0.00 | 0.00 | 0.00 | 1008.1 | |
| 20260504205104 | 20 | 101 | 0.0 | 11.3 | 0.00 | 0.00 | 0.00 | 35 | 1007.9 |
| 20260504205006 | -17 | 101 | 0.0 | 11.3 | 0.00 | 0.00 | 0.00 | 1008.1 | |
| 20260504204600 | 18 | 106 | 3.2 | 11.3 | 0.00 | 0.00 | 0.00 | 39 | 1008.0 |
| 20260504204512 | -17 | 106 | 1.6 | 11.3 | 0.00 | 0.00 | 0.00 | 1008.2 | |
| 20260504204052 | 17 | 96 | 0.0 | 0.0 | 0.00 | 0.00 | 0.00 | 39 | 1008.2 |
| 20260504204006 | -17 | 247 | 0.0 | 0.0 | 0.00 | 0.00 | 0.00 | 1008.4 | |
| 20260504203544 | 17 | 247 | 0.0 | 6.4 | 0.00 | 0.00 | 0.00 | 38 | 1008.5 |
| 20260504203511 | -17 | 247 | 0.0 | 6.4 | 0.00 | 0.00 | 0.00 | 1008.6 | |
| 20260504203057 | 16 | 247 | 0.0 | 6.4 | 0.00 | 0.00 | 0.00 | 41 | 1008.7 |
| 20260504203010 | -17 | 247 | 0.0 | 11.3 | 0.00 | 0.00 | 0.00 | 1008.8 | |
| 20260504202552 | 16 | 251 | 0.0 | 12.9 | 0.00 | 0.00 | 0.00 | 43 | 1008.7 |
| 20260504202509 | -17 | 248 | 0.0 | 12.9 | 0.00 | 0.00 | 0.00 | 1008.8 | |
| 20260504202044 | 16 | 323 | 4.8 | 12.9 | 0.00 | 0.00 | 0.00 | 39 | 1008.7 |
| 20260504202006 | -17 | 354 | 3.2 | 12.9 | 0.00 | 0.00 | 0.00 | 1008.9 | |
| 20260504201557 | 16 | 6 | 6.4 | 12.9 | 0.00 | 0.00 | 0.00 | 42 | 1008.9 |
| 20260504201523 | -17 | 5 | 6.4 | 12.9 | 0.00 | 0.00 | 0.00 | 1009.1 | |
| 20260504201049 | 15 | 360 | 4.8 | 12.9 | 0.00 | 0.00 | 0.00 | 43 | 1009.1 |
| 20260504201008 | -17 | 303 | 4.8 | 11.3 | 0.00 | 0.00 | 0.00 | 1009.3 | |
| 20260504200544 | 15 | 352 | 4.8 | 9.7 | 0.00 | 0.00 | 0.00 | 46 | 1009.2 |
| 20260504200505 | -17 | 353 | 3.2 | 14.5 | 0.00 | 0.00 | 0.00 | 1009.3 | |
| 20260504200056 | 14 | 45 | 6.4 | 19.3 | 0.00 | 0.00 | 0.00 | 49 | 1009.1 |
| 20260504200020 | -17 | 26 | 6.4 | 20.9 | 0.00 | 0.00 | 0.00 | 1009.1 | |
| 20260504195610 | 14 | 16 | 11.3 | 19.3 | 0.00 | 0.00 | 0.00 | 52 | 1008.9 |
| 20260504195505 | -17 | 41 | 11.3 | 20.9 | 0.00 | 0.00 | 0.00 | 1009.0 | |
| 20260504195042 | 13 | 76 | 9.7 | 19.3 | 0.00 | 0.00 | 0.00 | 59 | 1008.8 |
| 20260504195003 | -17 | 54 | 9.7 | 20.9 | 0.00 | 0.00 | 0.00 | 1009.0 | |
| 20260504194554 | 13 | 82 | 9.7 | 14.5 | 0.00 | 0.00 | 0.00 | 62 | 1009.1 |
| 20260504194519 | -17 | 72 | 9.7 | 16.1 | 0.00 | 0.00 | 0.00 | 1009.3 | |
| 20260504194046 | 13 | 66 | 4.8 | 9.7 | 0.00 | 0.00 | 0.00 | 65 | 1009.3 |
| 20260504194006 | -17 | 66 | 4.8 | 14.5 | 0.00 | 0.00 | 0.00 | 1009.4 | |
| 20260504193559 | 13 | 74 | 8.0 | 12.9 | 0.00 | 0.00 | 0.00 | 65 | 1009.6 |
| 20260504193508 | -17 | 76 | 6.4 | 14.5 | 0.00 | 0.00 | 0.00 | 1009.5 | |
| 20260504193119 | 13 | 196 | 8.0 | 16.1 | 0.00 | 0.00 | 0.00 | 65 | 1009.6 |
| 20260504193019 | -17 | 199 | 8.0 | 17.7 | 0.00 | 0.00 | 0.00 | 1009.7 | |
| 20260504192552 | 13 | 190 | 8.0 | 27.4 | 0.00 | 0.00 | 0.00 | 65 | 1009.6 |
| 20260504192506 | -17 | 150 | 8.0 | 29.0 | 0.00 | 0.00 | 0.00 | 1009.6 | |
| 20260504192053 | 13 | 196 | 16.1 | 32.2 | 0.00 | 0.00 | 0.00 | 59 | 1009.4 |
| 20260504192009 | -17 | 196 | 17.7 | 35.4 | 0.00 | 0.00 | 0.00 | 1009.4 | |
| 20260504191554 | 15 | 198 | 14.5 | 46.7 | 0.00 | 0.00 | 0.00 | 49 | 1009.0 |
| 20260504191518 | -17 | 157 | 16.1 | 62.8 | 0.00 | 0.00 | 0.00 | 1009.0 | |
| 20260504191045 | 16 | 251 | 24.1 | 59.5 | 0.00 | 0.00 | 0.00 | 36 | 1008.6 |
| 20260504191012 | -17 | 198 | 24.1 | 62.8 | 0.00 | 0.00 | 0.00 | 1008.6 | |
| 20260504190558 | 18 | 189 | 27.4 | 59.5 | 0.00 | 0.00 | 0.00 | 36 | 1008.4 |
| 20260504190508 | -17 | 140 | 20.9 | 41.8 | 0.00 | 0.00 | 0.00 | 1008.6 | |
| 20260504190048 | 18 | 146 | 17.7 | 33.8 | 0.00 | 0.00 | 0.00 | 28 | 1008.5 |
| 20260504190016 | -17 | 101 | 17.7 | 35.4 | 0.00 | 0.00 | 0.00 | 1008.6 | |
| 20260504185557 | 19 | 121 | 9.7 | 33.8 | 0.00 | 0.00 | 0.00 | 25 | 1008.2 |
| 20260504185512 | -17 | 123 | 9.7 | 35.4 | 0.00 | 0.00 | 0.00 | 1008.3 | |
| 20260504185051 | 20 | 157 | 11.3 | 35.4 | 0.00 | 0.00 | 0.00 | 23 | 1008.1 |
| 20260504185007 | -17 | 144 | 11.3 | 37.0 | 0.00 | 0.00 | 0.00 | 1008.2 | |
| 20260504184543 | 20 | 70 | 12.9 | 35.4 | 0.00 | 0.00 | 0.00 | 22 | 1008.0 |
| 20260504184515 | -17 | 104 | 12.9 | 37.0 | 0.00 | 0.00 | 0.00 | 1008.3 | |
| 20260504184055 | 20 | 127 | 9.7 | 17.7 | 0.00 | 0.00 | 0.00 | 21 | 1008.0 |
| 20260504184007 | -17 | 130 | 8.0 | 22.5 | 0.00 | 0.00 | 0.00 | 1008.3 | |
| 20260504183608 | 21 | 22 | 0.0 | 17.7 | 0.00 | 0.00 | 0.00 | 21 | 1008.0 |
| 20260504183508 | -17 | 19 | 0.0 | 19.3 | 0.00 | 0.00 | 0.00 | 1008.2 | |
| 20260504183100 | 21 | 42 | 3.2 | 17.7 | 0.00 | 0.00 | 0.00 | 21 | 1008.0 |
| 20260504183023 | -17 | 38 | 3.2 | 19.3 | 0.00 | 0.00 | 0.00 | 1008.1 | |
| 20260504182614 | 21 | 26 | 0.0 | 8.0 | 0.00 | 0.00 | 0.00 | 20 | 1007.9 |
| 20260504182510 | -17 | 22 | 0.0 | 12.9 | 0.00 | 0.00 | 0.00 | 1008.0 | |
| 20260504182044 | 21 | 45 | 0.0 | 14.5 | 0.00 | 0.00 | 0.00 | 19 | 1007.9 |
| 20260504182006 | -17 | 38 | 0.0 | 14.5 | 0.00 | 0.00 | 0.00 | 1008.0 | |
| 20260504181557 | 21 | 1 | 6.4 | 16.1 | 0.00 | 0.00 | 0.00 | 20 | 1007.9 |
| 20260504181520 | -17 | 2 | 4.8 | 19.3 | 0.00 | 0.00 | 0.00 | 1008.0 | |
| 20260504181048 | 22 | 12 | 1.6 | 19.3 | 0.00 | 0.00 | 0.00 | 19 | 1007.9 |
| 20260504181008 | -17 | 356 | 1.6 | 19.3 | 0.00 | 0.00 | 0.00 | 1008.0 | |
| 20260504180601 | 22 | 340 | 4.8 | 19.3 | 0.00 | 0.00 | 0.00 | 19 | 1007.9 |
| 20260504180504 | -17 | 30 | 1.6 | 22.5 | 0.00 | 0.00 | 0.00 | 1008.1 | |
| 20260504180053 | 23 | 324 | 8.0 | 22.5 | 0.00 | 0.00 | 0.00 | 19 | 1008.0 |
| 20260504180020 | -17 | 327 | 8.0 | 22.5 | 0.00 | 0.00 | 0.00 | 1008.1 | |
| 20260504175607 | 24 | 13 | 6.4 | 22.5 | 0.00 | 0.00 | 0.00 | 19 | 1008.0 |
| 20260504175508 | -17 | 30 | 6.4 | 22.5 | 0.00 | 0.00 | 0.00 | 1008.1 | |
| 20260504175100 | 24 | 24 | 8.0 | 17.7 | 0.00 | 0.00 | 0.00 | 19 | 1008.0 |
| 20260504175011 | -17 | 7 | 6.4 | 20.9 | 0.00 | 0.00 | 0.00 | 1008.2 | |
| 20260504174553 | 24 | 38 | 8.0 | 22.5 | 0.00 | 0.00 | 0.00 | 19 | 1008.1 |
| 20260504174519 | -17 | 18 | 6.4 | 20.9 | 0.00 | 0.00 | 0.00 | 1008.2 | |
| 20260504174045 | 24 | 340 | 4.8 | 22.5 | 0.00 | 0.00 | 0.00 | 19 | 1008.3 |
| 20260504174004 | -17 | 346 | 1.6 | 20.9 | 0.00 | 0.00 | 0.00 | 1008.3 | |
| 20260504173558 | 24 | 28 | 8.0 | 14.5 | 0.00 | 0.00 | 0.00 | 19 | 1008.3 |
| 20260504173512 | -17 | 313 | 6.4 | 14.5 | 0.00 | 0.00 | 0.00 | 1008.4 | |
| 20260504173050 | 24 | 357 | 3.2 | 11.3 | 0.00 | 0.00 | 0.00 | 20 | 1008.5 |
| 20260504173031 | -17 | 15 | 1.6 | 11.3 | 0.00 | 0.00 | 0.00 | 1008.6 | |
| 20260504172552 | 24 | 354 | 3.2 | 11.3 | 0.00 | 0.00 | 0.00 | 19 | 1008.5 |
| 20260504172507 | -17 | 1 | 3.2 | 11.3 | 0.00 | 0.00 | 0.00 | 1008.6 | |
| 20260504172054 | 24 | 23 | 4.8 | 9.7 | 0.00 | 0.00 | 0.00 | 20 | 1008.7 |
| 20260504172007 | -17 | 3 | 3.2 | 11.3 | 0.00 | 0.00 | 0.00 | 1008.7 | |
| 20260504171545 | 24 | 13 | 3.2 | 11.3 | 0.00 | 0.00 | 0.00 | 20 | 1008.7 |
| 20260504171522 | -17 | 7 | 1.6 | 9.7 | 0.00 | 0.00 | 0.00 | 1008.7 | |
| 20260504171056 | 23 | 256 | 0.0 | 4.8 | 0.00 | 0.00 | 0.00 | 20 | 1008.7 |
| 20260504171009 | -17 | 29 | 0.0 | 4.8 | 0.00 | 0.00 | 0.00 | 1008.8 | |
| 20260504170549 | 23 | 322 | 0.0 | 0.0 | 0.00 | 0.00 | 0.00 | 21 | 1008.8 |
| 20260504170508 | -17 | 344 | 0.0 | 0.0 | 0.00 | 0.00 | 0.00 | 1008.8 | |
| 20260504151048 | 16 | 289 | 0.0 | 6.4 | 0.00 | 0.00 | 0.00 | 30 | 1009.9 |
| 20260504150739 | -17 | 313 | 0.0 | 14.5 | 0.00 | 0.00 | 0.00 | 1009.8 | |
| 20260504150602 | 16 | 270 | 1.6 | 6.4 | 0.00 | 0.00 | 0.00 | 31 | 1009.9 |
| 20260504141055 | 13 | 273 | 1.6 | 12.9 | 0.00 | 0.00 | 0.00 | 34 | 1010.0 |
| 20260504140545 | 13 | 251 | 1.6 | 12.9 | 0.00 | 0.00 | 0.00 | 34 | 1010.0 |
| 20260504140516 | -17 | 213 | 0.0 | 0.0 | 0.00 | 0.00 | 0.00 | 1009.8 |